Location: Arborea
(39.7744°N, 8.5819°E)
Time: 06:51:22
(UTC+00:00)

Cosmos 2322 - Pass Details

Date: 02 June 2022
Orbit: 840 x 855 km, 71.0° (Epoch: 03 July)

Event Time Altitude Azimuth Distance (km) Brightness Sun altitude
Exits shadow 20:49:26 32° 147° (SSE) 1,434 4.3 -18.3°
Maximum altitude 20:51:17 41° 106° (ESE) 1,219 4.1 -18.5°
Drops below altitude 10° 20:56:37 10° 37° (NE) 2,492 6.3 -19.1°
Sets 20:59:11 0° 31° (NNE) 3,432 7.2 -19.4°
